Location: Cold Norton
(51.6667°N, 0.6667°E)
Time: 07:48:14
(UTC+00:00)

Cosmos 2278 Rocket - Pass Details

Date: 18 November 2025
Orbit: 841 x 843 km, 71.0° (Epoch: 12 December)

Event Time Altitude Azimuth Distance (km) Brightness Sun altitude
Rises 17:35:48 0° 199° (SSW) 3,385 5.8 -14.1°
Reaches altitude 10° 17:38:15 10° 197° (SSW) 2,454 5.0 -14.4°
Maximum altitude 17:43:50 68° 116° (ESE) 905 2.2 -15.3°
Enters shadow 17:48:40 14° 35° (NE) 2,175 3.9 -16.0°
